Ceiba, PR

1:54 PM AST on January 16, 2017 (GMT -0400)
Roosevelt Roads Ns

Weather History for TJNR - May, 2013

Change the Weather History Date:

Tuesday, May 21, 2013

  Actual Average Record
Temperature  
Mean Temperature 80 °F -  
Max Temperature 86 °F 84 °F 88 °F (1999)
Min Temperature 75 °F 73 °F 35 °F (2003)
Cooling Degree Days 16    
Growing Degree Days 30 (Base 50)    
Moisture  
Dew Point 74 °F    
Average Humidity 81    
Maximum Humidity 96    
Minimum Humidity 66    
Precipitation  
Precipitation 0.45 in - - ()
Sea Level Pressure  
Sea Level Pressure 30.01 in    
Wind  
Wind Speed 10 mph (ENE)    
Max Wind Speed 18 mph    
Max Gust Speed 26 mph    
Visibility 8 miles    
Events Rain    
Averages and records for this station are not official NWS values.
T = Trace of Precipitation, MM = Missing Value Source: NWS Daily Summary

Daily Weather History Graph

Daily Weather History Graph

Search for Another Location

Airport or City:

Trip Planner

Search our weather history database for the weather conditions in past years. The results will help you decide how hot, cold, wet, or windy it might be!

Date:

Astronomy

May. 21, 2013 Rise Set
Actual Time 5:47 AM AST 6:51 PM AST
Civil Twilight 5:23 AM AST 7:14 PM AST
Nautical Twilight 4:55 AM AST 7:42 PM AST
Astronomical Twilight 4:27 AM AST 8:11 PM AST
Moon 3:27 PM AST (5/21) 2:40 AM AST (5/21)
Length of Visible Light 13h 50m
Length of Day
13h 03m
Waxing Gibbous, 84% of the Moon is Illuminated
May 21
Waxing Gibbous
May 25
Full
May 31
Last Quarter
Jun 8
New
Jun 16
First Quarter

Hourly Weather History & Observations

Time (AST) Temp. Heat Index Dew Point Humidity Pressure Visibility Wind Dir Wind Speed Gust Speed Precip Events Conditions
12:53 AM 78.1 °F - 73.0 °F 84% 30.02 in 10.0 mi ENE 11.5 mph - N/A   Mostly Cloudy
1:22 AM 78.8 °F - 73.4 °F 83% 30.00 in 10.0 mi ENE 10.4 mph 19.6 mph N/A   Overcast
1:33 AM 77.0 °F - 73.4 °F 89% 30.00 in 10.0 mi East 10.4 mph - N/A   Overcast
1:53 AM 77.0 °F - 73.0 °F 88% 29.99 in 10.0 mi ENE 11.5 mph 19.6 mph N/A   Overcast
2:01 AM 77.0 °F - 73.4 °F 89% 29.99 in 10.0 mi ENE 12.7 mph 19.6 mph N/A   Overcast
2:30 AM 77.0 °F - 71.6 °F 83% 29.99 in 10.0 mi ENE 11.5 mph - N/A   Overcast
2:49 AM 75.2 °F - 73.4 °F 94% 29.99 in 10.0 mi East 10.4 mph 19.6 mph N/A   Mostly Cloudy
2:53 AM 75.9 °F - 73.9 °F 94% 29.99 in 9.0 mi ENE 11.5 mph 17.3 mph N/A   Overcast
3:53 AM 75.0 °F - 73.9 °F 96% 29.98 in 10.0 mi NE 9.2 mph - N/A   Mostly Cloudy
4:24 AM 75.2 °F - 73.4 °F 94% 29.98 in 10.0 mi ENE 6.9 mph - N/A   Mostly Cloudy
4:53 AM 77.0 °F - 72.0 °F 84% 29.98 in 10.0 mi East 9.2 mph - N/A   Overcast
5:53 AM 78.1 °F - 72.0 °F 81% 29.99 in 10.0 mi East 6.9 mph - N/A   Mostly Cloudy
6:53 AM 78.1 °F - 73.0 °F 84% 30.01 in 10.0 mi East 11.5 mph 18.4 mph N/A   Overcast
7:53 AM 80.1 °F 84.2 °F 73.0 °F 79% 30.02 in 10.0 mi ENE 11.5 mph - N/A   Mostly Cloudy
8:53 AM 80.1 °F 84.2 °F 73.0 °F 79% 30.04 in 9.0 mi ENE 9.2 mph - N/A   Overcast
9:53 AM 82.0 °F 87.9 °F 73.9 °F 76% 30.05 in 10.0 mi ENE 10.4 mph - N/A   Mostly Cloudy
10:27 AM 80.6 °F 85.4 °F 73.4 °F 79% 30.05 in 10.0 mi ENE 11.5 mph - N/A   Mostly Cloudy
10:53 AM 86.0 °F 95.1 °F 75.0 °F 70% 30.05 in 10.0 mi East 11.5 mph - N/A   Mostly Cloudy
11:53 AM 86.0 °F 93.8 °F 73.9 °F 67% 30.04 in 10.0 mi ENE 13.8 mph 20.7 mph N/A   Overcast
12:29 PM 86.0 °F 93.4 °F 73.4 °F 66% 30.03 in 10.0 mi East 12.7 mph 17.3 mph N/A   Scattered Clouds
12:53 PM 84.0 °F 91.2 °F 73.9 °F 72% 30.03 in 10.0 mi ENE 10.4 mph - N/A   Scattered Clouds
1:49 PM 82.4 °F 88.2 °F 73.4 °F 74% 30.02 in 9.0 mi East 10.4 mph 20.7 mph N/A   Overcast
1:53 PM 82.0 °F 87.4 °F 73.0 °F 74% 30.02 in 9.0 mi ENE 10.4 mph 20.7 mph N/A   Mostly Cloudy
2:00 PM 82.4 °F 88.2 °F 73.4 °F 74% 30.02 in 10.0 mi NE 6.9 mph 19.6 mph N/A   Mostly Cloudy
2:07 PM 84.2 °F 92.3 °F 75.2 °F 74% 30.01 in 9.0 mi East 11.5 mph 18.4 mph N/A   Mostly Cloudy
2:18 PM 84.2 °F 90.9 °F 73.4 °F 70% 30.00 in 10.0 mi East 11.5 mph 19.6 mph N/A   Mostly Cloudy
2:48 PM 82.4 °F 88.2 °F 73.4 °F 74% 29.99 in 9.0 mi East 11.5 mph 17.3 mph N/A   Mostly Cloudy
2:53 PM 82.9 °F 89.4 °F 73.9 °F 74% 29.99 in 9.0 mi ENE 11.5 mph 16.1 mph N/A   Mostly Cloudy
3:21 PM 84.2 °F 90.9 °F 73.4 °F 70% 29.99 in 10.0 mi ENE 10.4 mph 19.6 mph N/A   Mostly Cloudy
3:34 PM 82.4 °F 88.2 °F 73.4 °F 74% 29.99 in 9.0 mi East 12.7 mph 19.6 mph N/A   Mostly Cloudy
3:53 PM 82.9 °F 89.4 °F 73.9 °F 74% 30.00 in 9.0 mi East 10.4 mph 18.4 mph N/A   Overcast
4:39 PM 82.4 °F 88.2 °F 73.4 °F 74% 29.99 in 9.0 mi East 15.0 mph 21.9 mph N/A   Overcast
4:46 PM 78.8 °F - 73.4 °F 83% 30.00 in 1.2 mi East 18.4 mph 26.5 mph 0.13 in Rain Heavy Rain
4:53 PM 77.0 °F - 73.9 °F 90% 30.00 in 1.0 mi ENE 8.1 mph 24.2 mph 0.17 in Rain Rain
4:56 PM 77.0 °F - 73.4 °F 89% 30.00 in 1.5 mi ENE 6.9 mph - 0.01 in Rain Rain
5:14 PM 78.8 °F - 75.2 °F 89% 30.00 in 3.0 mi NE 6.9 mph - 0.11 in Rain Light Rain
5:53 PM 80.1 °F 85.8 °F 77.0 °F 90% 30.01 in 7.0 mi ENE 10.4 mph 19.6 mph 0.14 in   Mostly Cloudy
6:45 PM 78.8 °F - 77.0 °F 94% 30.01 in 1.8 mi ESE 9.2 mph 18.4 mph 0.08 in Rain Rain
6:53 PM 78.1 °F - 75.9 °F 93% 30.01 in 1.2 mi East 3.5 mph - 0.14 in Rain Rain
6:56 PM 78.8 °F - 75.2 °F 89% 30.00 in 2.5 mi Calm Calm - 0.00 in Rain Light Rain
7:03 PM 78.8 °F - 75.2 °F 89% 30.01 in 9.0 mi Calm Calm - 0.00 in   Overcast
7:53 PM 80.1 °F 85.4 °F 75.9 °F 87% 30.01 in 9.0 mi East 5.8 mph - 0.00 in   Scattered Clouds
8:53 PM 81.0 °F 86.2 °F 73.9 °F 79% 30.02 in 10.0 mi East 9.2 mph - N/A   Mostly Cloudy
9:53 PM 81.0 °F 86.2 °F 73.9 °F 79% 30.04 in 10.0 mi ENE 9.2 mph - N/A   Mostly Cloudy
10:02 PM 80.6 °F 85.4 °F 73.4 °F 79% 30.04 in 10.0 mi ENE 9.2 mph - N/A   Overcast
10:29 PM 80.6 °F 85.4 °F 73.4 °F 79% 30.04 in 10.0 mi East 11.5 mph - N/A   Mostly Cloudy
10:53 PM 82.0 °F 88.6 °F 75.0 °F 79% 30.04 in 10.0 mi ENE 10.4 mph - N/A   Overcast
11:36 PM 80.6 °F 85.4 °F 73.4 °F 79% 30.03 in 10.0 mi ENE 9.2 mph - N/A   Mostly Cloudy
11:46 PM 80.6 °F 85.4 °F 73.4 °F 79% 30.03 in 10.0 mi East 9.2 mph - N/A   Scattered Clouds
11:53 PM 81.0 °F 85.8 °F 73.0 °F 77% 30.03 in 10.0 mi East 8.1 mph - N/A   Scattered Clouds